Regional Weather Roundup
Issued by NWS

Home | Current Version | Previous Version | Text Only | Print | Product List | Glossary Off
Versions: 1 2 3 4 5 6 7 8 9 10 11 12 13 14 15 16 17 18 19 20 21 22 23 24 25 26 27 28 29 30 31 32 33 34 35 36 37 38 39 40 41 42 43 44 45 46 47 48 49 50

000
ASUS43 KLMK 250702
RWRKY
KENTUCKY REGIONAL WEATHER ROUNDUP
NATIONAL WEATHER SERVICE LOUISVILLE KY
300 AM EDT MON MAY 25 2015

NOTE "FAIR" INDICATES FEW OR NO CLOUDS BELOW 12,000 FEET
WITH NO SIGNIFICANT WEATHER AND/OR OBSTRUCTIONS TO VISIBILITY.

KYZ001>023-026-027-061>063-070>075-250800-
WESTERN AND SOUTH CENTRAL KENTUCKY

CITY           SKY/WX    TMP DP  RH WIND       PRES   REMARKS
PADUCAH        RAIN      69  66  90 S15G26    30.01R FOG
HENDERSON      CLOUDY    68  63  83 S10       30.02F
OWENSBORO      LGT RAIN  72  68  87 S13       30.06F
HOPKINSVILLE   CLOUDY    70  67  90 S10       30.06S
BOWLING GREEN  MOCLDY    73  60  63 S8        30.09F
GLASGOW        NOT AVBL
$$

KYZ024-025-028>034-038-045-046-053-250800-
NORTH CENTRAL KENTUCKY

CITY           SKY/WX    TMP DP  RH WIND       PRES   REMARKS
LOUISVILLE/SDF CLOUDY    76  58  53 S14       30.07F
LOUISVILLE/LOU CLOUDY    76  58  53 S8        30.08F
FORT KNOX      MOCLDY    73  60  65 S9        30.07F
$$

KYZ035>037-039>044-047>052-055>060-089>105-250800-
NORTHEAST KENTUCKY

CITY           SKY/WX    TMP DP  RH WIND       PRES   REMARKS
LEXINGTON      MOCLDY    70  55  59 S12       30.13F
COVINGTON      MOCLDY    70  55  59 S10       30.09F
FRANKFORT      MOCLDY    69  55  60 S7        30.10F
$$

KYZ054-064>069-076>088-106>120-250800-
SOUTHEAST KENTUCKY

CITY           SKY/WX    TMP DP  RH WIND       PRES   REMARKS
JACKSON        PTCLDY    66  50  56 CALM      30.19F
LONDON         CLEAR     67  51  56 CALM      30.18F
SOMERSET       NOT AVBL
MIDDLESBORO    PTCLDY    57  55  94 CALM      30.22F
MONTICELLO     MOSUNNY   74  56  53 S14       30.18F
$$




USA.gov is the U.S. government's official web portal to all federal, state and local government web resources and services.